{"data":{"norad_id":45157,"epoch":"2026-09-20T02:41:46.830912Z","epoch_age_seconds":47843,"freshness":"FRESH","line1":"1 45157U 20008AC  26263.11234758 -.00000534  00000+0 -15668-2 0  9993","line2":"2 45157  87.8895  17.3833 0002174 107.0165 253.1201 13.10371378320348","mean_motion":13.10371378,"eccentricity":0.0002174,"inclination_deg":87.8895,"raan_deg":17.3833,"arg_perigee_deg":107.0165,"mean_anomaly_deg":253.1201,"bstar":-0.0015668,"rev_number":32034,"period_min":109.89251018271,"perigee_km":1220.0705051882,"apogee_km":1223.3749241922,"semimajor_km":7599.8597146902,"source":"CELESTRAK","updated_at":"2026-09-20T09:00:44.550085Z"}}